Meteo orario Zagreb

Oggi, 5 Dicembre, Sabato

Tempo Temperatura Precipitazioni Vento Pressione Umidità
00:00 +2°C° 0 mm 0 m/s 743 mm Hg 98%
01:00 +1°C° 0 mm 0 m/s 743 mm Hg 96%
02:00 +1°C° 0 mm 0 m/s 743 mm Hg 96%
03:00 +2°C° 0 mm 1 m/s 743 mm Hg 97%
04:00 +2°C° 0 mm 1 m/s 742 mm Hg 97%
05:00 +2°C° 0 mm 1 m/s 743 mm Hg 97%
06:00 +2°C° 0 mm 1 m/s 743 mm Hg 96%
07:00 +2°C° 0 mm 1 m/s 744 mm Hg 94%
08:00 +3°C° 0 mm 1 m/s 744 mm Hg 94%
09:00 +5°C° 0 mm 1 m/s 744 mm Hg 93%
10:00 +6°C° 0 mm 1 m/s 744 mm Hg 93%
11:00 +7°C° 0 mm 1 m/s 744 mm Hg 93%
12:00 +8°C° 0 mm 1 m/s 744 mm Hg 93%
13:00 +9°C° 0 mm 1 m/s 744 mm Hg 93%
14:00 +9°C° 0 mm 1 m/s 744 mm Hg 93%
15:00 +8°C° 0 mm 1 m/s 744 mm Hg 93%
16:00 +8°C° 0 mm 1 m/s 744 mm Hg 93%
17:00 +8°C° 0 mm 1 m/s 744 mm Hg 93%
18:00 +7°C° 0 mm 1 m/s 744 mm Hg 93%
19:00 +7°C° 0 mm 1 m/s 744 mm Hg 93%
20:00 +7°C° 0 mm 1 m/s 745 mm Hg 93%
21:00 +7°C° 0 mm 1 m/s 745 mm Hg 93%
22:00 +7°C° 0 mm 1 m/s 745 mm Hg 93%
23:00 +7°C° 0 mm 1 m/s 745 mm Hg 93%

Domani, 6 Dicembre, Domenica

Tempo Temperatura Precipitazioni Vento Pressione Umidità
00:00 +7°C° 0 mm 1 m/s 745 mm Hg 93%
01:00 +7°C° 0 mm 1 m/s 745 mm Hg 93%
02:00 +7°C° 0 mm 1 m/s 745 mm Hg 93%
03:00 +7°C° 0 mm 1 m/s 745 mm Hg 93%
04:00 +7°C° 0 mm 1 m/s 744 mm Hg 93%
05:00 +7°C° 0 mm 1 m/s 744 mm Hg 93%
06:00 +7°C° 0 mm 1 m/s 744 mm Hg 93%
07:00 +7°C° 0 mm 1 m/s 744 mm Hg 93%
08:00 +8°C° 0 mm 1 m/s 744 mm Hg 91%
09:00 +7°C° 0 mm 2 m/s 744 mm Hg 90%
10:00 +8°C° 0 mm 2 m/s 743 mm Hg 89%
11:00 +8°C° 0.1 mm 2 m/s 743 mm Hg 88%
12:00 +9°C° 0.1 mm 2 m/s 742 mm Hg 87%
13:00 +9°C° 0.1 mm 2 m/s 742 mm Hg 86%
14:00 +9°C° 0.1 mm 2 m/s 741 mm Hg 86%
15:00 +9°C° 0.1 mm 2 m/s 741 mm Hg 86%
16:00 +8°C° 0.1 mm 2 m/s 741 mm Hg 85%
17:00 +9°C° 0.1 mm 2 m/s 740 mm Hg 83%
18:00 +9°C° 0.1 mm 3 m/s 740 mm Hg 82%
19:00 +9°C° 0.1 mm 3 m/s 739 mm Hg 80%
20:00 +9°C° 0.1 mm 3 m/s 739 mm Hg 81%
21:00 +9°C° 0.1 mm 2 m/s 739 mm Hg 83%
22:00 +9°C° 0.1 mm 2 m/s 739 mm Hg 84%
23:00 +8°C° 0.2 mm 2 m/s 739 mm Hg 86%

Dopodomani, 7 Dicembre, Lunedi

Tempo Temperatura Precipitazioni Vento Pressione Umidità
00:00 +9°C° 0.2 mm 1 m/s 739 mm Hg 88%
01:00 +9°C° 0.2 mm 1 m/s 739 mm Hg 90%
02:00 +9°C° 0.2 mm 1 m/s 740 mm Hg 90%
03:00 +8°C° 0.2 mm 2 m/s 740 mm Hg 91%
04:00 +8°C° 0.2 mm 2 m/s 740 mm Hg 91%
05:00 +7°C° 0.3 mm 2 m/s 741 mm Hg 91%
06:00 +7°C° 0.3 mm 2 m/s 741 mm Hg 92%
07:00 +8°C° 0.3 mm 1 m/s 742 mm Hg 92%
08:00 +8°C° 0 mm 1 m/s 742 mm Hg 89%
09:00 +9°C° 0 mm 1 m/s 743 mm Hg 86%
10:00 +9°C° 0 mm 1 m/s 743 mm Hg 83%
11:00 +10°C° 0 mm 1 m/s 743 mm Hg 80%
12:00 +10°C° 0 mm 1 m/s 743 mm Hg 78%
13:00 +11°C° 0 mm 1 m/s 743 mm Hg 75%
14:00 +10°C° 0 mm 1 m/s 743 mm Hg 78%
15:00 +10°C° 0 mm 1 m/s 743 mm Hg 82%
16:00 +9°C° 0 mm 1 m/s 743 mm Hg 86%
17:00 +7°C° 0 mm 0 m/s 744 mm Hg 87%
18:00 +7°C° 0 mm 0 m/s 744 mm Hg 89%
19:00 +6°C° 0 mm 0 m/s 744 mm Hg 91%
20:00 +6°C° 0 mm 0 m/s 744 mm Hg 91%
21:00 +6°C° 0 mm 0 m/s 745 mm Hg 92%
22:00 +6°C° 0 mm 0 m/s 745 mm Hg 92%
23:00 +5°C° 0 mm 0 m/s 745 mm Hg 93%

8 Dicembre, Martedi

Tempo Temperatura Precipitazioni Vento Pressione Umidità
00:00 +5°C° 0 mm 0 m/s 744 mm Hg 94%
01:00 +5°C° 0 mm 0 m/s 744 mm Hg 95%
02:00 +6°C° 1 mm 1 m/s 744 mm Hg 95%
03:00 +6°C° 1 mm 1 m/s 744 mm Hg 96%
04:00 +6°C° 1 mm 1 m/s 744 mm Hg 97%
05:00 +6°C° 1.4 mm 1 m/s 744 mm Hg 97%
06:00 +4°C° 1.4 mm 0 m/s 744 mm Hg 96%
07:00 +4°C° 1.4 mm 0 m/s 744 mm Hg 96%
08:00 +5°C° 0 mm 0 m/s 745 mm Hg 94%
09:00 +6°C° 0 mm 0 m/s 745 mm Hg 91%
10:00 +6°C° 0 mm 0 m/s 745 mm Hg 89%
11:00 +7°C° 0 mm 0 m/s 745 mm Hg 86%
12:00 +8°C° 0 mm 1 m/s 744 mm Hg 84%
13:00 +9°C° 0 mm 1 m/s 744 mm Hg 82%
14:00 +7°C° 0 mm 2 m/s 744 mm Hg 85%
15:00 +7°C° 0 mm 2 m/s 744 mm Hg 87%
16:00 +7°C° 0 mm 2 m/s 743 mm Hg 89%
17:00 +6°C° 0 mm 2 m/s 743 mm Hg 90%
18:00 +5°C° 0 mm 3 m/s 743 mm Hg 90%
19:00 +5°C° 0 mm 3 m/s 743 mm Hg 90%
20:00 +5°C° 0 mm 3 m/s 743 mm Hg 90%
21:00 +5°C° 0 mm 3 m/s 743 mm Hg 89%
22:00 +5°C° 0 mm 3 m/s 742 mm Hg 88%
23:00 +5°C° 0.3 mm 3 m/s 742 mm Hg 89%

9 Dicembre, Mercoledi

Tempo Temperatura Precipitazioni Vento Pressione Umidità
00:00 +5°C° 0.3 mm 3 m/s 742 mm Hg 89%
01:00 +5°C° 0.3 mm 3 m/s 741 mm Hg 89%
02:00 +5°C° 0.8 mm 3 m/s 741 mm Hg 90%
03:00 +5°C° 0.8 mm 3 m/s 742 mm Hg 91%
04:00 +5°C° 0.8 mm 3 m/s 742 mm Hg 92%
05:00 +6°C° 0 mm 2 m/s 742 mm Hg 92%
06:00 +6°C° 0 mm 2 m/s 742 mm Hg 93%
07:00 +5°C° 0 mm 2 m/s 742 mm Hg 93%
08:00 +6°C° 0 mm 2 m/s 742 mm Hg 92%
09:00 +6°C° 0 mm 2 m/s 743 mm Hg 90%
10:00 +6°C° 0 mm 2 m/s 743 mm Hg 88%
11:00 +7°C° 0 mm 2 m/s 743 mm Hg 86%
12:00 +7°C° 0 mm 3 m/s 742 mm Hg 85%
13:00 +8°C° 0 mm 3 m/s 742 mm Hg 83%
14:00 +8°C° 0 mm 3 m/s 742 mm Hg 84%
15:00 +7°C° 0 mm 3 m/s 742 mm Hg 85%
16:00 +7°C° 0 mm 2 m/s 742 mm Hg 85%
17:00 +7°C° 0 mm 2 m/s 742 mm Hg 86%
18:00 +7°C° 0 mm 2 m/s 742 mm Hg 87%
19:00 +7°C° 0 mm 2 m/s 743 mm Hg 89%
20:00 +6°C° 0.3 mm 2 m/s 743 mm Hg 90%
21:00 +7°C° 0.3 mm 1 m/s 743 mm Hg 91%
22:00 +7°C° 0.3 mm 1 m/s 744 mm Hg 93%
23:00 +7°C° 0.8 mm 1 m/s 744 mm Hg 93%

10 Dicembre, Giovedi

Tempo Temperatura Precipitazioni Vento Pressione Umidità
00:00 +7°C° 0.8 mm 1 m/s 744 mm Hg 94%
01:00 +7°C° 0.8 mm 1 m/s 744 mm Hg 95%
02:00 +7°C° 0.2 mm 1 m/s 744 mm Hg 95%
03:00 +7°C° 0.2 mm 1 m/s 745 mm Hg 94%
04:00 +7°C° 0.2 mm 1 m/s 745 mm Hg 94%
05:00 +7°C° 0.1 mm 1 m/s 745 mm Hg 94%
06:00 +7°C° 0.1 mm 1 m/s 746 mm Hg 94%
07:00 +7°C° 0.1 mm 1 m/s 746 mm Hg 93%
08:00 +7°C° 0 mm 1 m/s 746 mm Hg 92%
09:00 +7°C° 0 mm 1 m/s 747 mm Hg 90%
10:00 +7°C° 0 mm 1 m/s 747 mm Hg 88%
11:00 +8°C° 0 mm 1 m/s 747 mm Hg 87%
12:00 +8°C° 0 mm 1 m/s 747 mm Hg 86%
13:00 +8°C° 0 mm 1 m/s 748 mm Hg 85%
14:00 +8°C° 0 mm 1 m/s 748 mm Hg 86%
15:00 +7°C° 0 mm 1 m/s 748 mm Hg 88%
16:00 +7°C° 0 mm 1 m/s 748 mm Hg 89%
17:00 +7°C° 0 mm 1 m/s 748 mm Hg 89%
18:00 +7°C° 0 mm 1 m/s 748 mm Hg 89%
19:00 +6°C° 0 mm 1 m/s 749 mm Hg 90%
20:00 +6°C° 0 mm 1 m/s 749 mm Hg 90%
21:00 +6°C° 0 mm 1 m/s 749 mm Hg 90%
22:00 +4°C° 0 mm 0 m/s 749 mm Hg 91%
23:00 +4°C° 0 mm 0 m/s 749 mm Hg 91%
Mostrare altro

Abbiamo bisogno del tuo consenso

Meteoprog e i nostri fornitori di servizi possono memorizzare e accedere a dati personali come cookie, identificatori di dispositivi o altre tecnologie simili sul tuo dispositivo e possono elaborare tali dati per personalizzare i contenuti e gli annunci, nonché fornire funzionalità dei social media e analizzarne il traffico.

  • Archiviare e/o accedere alle informazioni sul tuo dispositivo

    Cookie, identificatori di dispositivi o altre informazioni possono essere memorizzati o resi accessibili sul tuo dispositivo per le finalità sopra indicate.

  • Annunci e contenuti personalizzati, misurazione di annunci e contenuti, approfondimenti sul pubblico e sviluppo di prodotti

    Gli annunci e i contenuti possono essere personalizzati in base a un profilo. È possibile aggiungere più dati per personalizzare meglio annunci e contenuti. È possibile misurare il rendimento degli annunci e dei contenuti. È possibile ricavare informazioni sul pubblico che ha visto gli annunci e i contenuti. Tali dati possono essere utilizzati per sviluppare o migliorare l'esperienza, i sistemi e il software dell'utente.

Cliccando su “Accetto”, acconsenti all'uso di cookie, identificatori di dispositivo, web beacon o altre tecnologie simili. Puoi modificare le impostazioni nel browser del tuo dispositivo.

Per determinati scopi, è possibile fare affidamento su interessi legali, piuttosto che sul consenso. Puoi approfondire questo argomento consultando la nostra Informativa sulla privacy e sui cookie.